#timestamp,LO_Frequency,Hit,StdDev 
1521648015.3,286046998.9,N
1521648035.1,286046998.7,N
1521648036.0,286046998.7,N
1521648055.8,286046999.0,N
1521648075.7,286046997.2,N
1521648095.5,286046997.1,N
1521648115.3,286046997.3,N
1521648135.2,286046996.7,N
1521648155.0,286046998.9,N
1521648155.9,286046998.9,N
1521648175.8,286046998.6,N
1521648195.6,286046999.3,N
1521648215.4,286046999.3,N
1521648235.3,286046996.7,N
1521648255.1,286046995.0,Y
1521648275.8,286046996.8,P
1521648295.7,286046996.5,P
1521648315.5,286046999.4,N
1521648335.4,286046998.8,N
1521648355.2,286046999.0,N
1521648375.0,286047002.4,N
1521648375.9,286047002.4,N
1521648395.8,286047000.7,N
1521648415.6,286047000.8,N
1521648435.5,286047000.3,N
1521648455.3,286047000.1,N
1521648475.1,286047002.1,N
1521648495.9,286047000.8,N
1521648515.7,286046998.5,N
1521648535.5,286046998.4,N
1521648555.4,286046998.6,N
1521648575.2,286046998.8,N
1521648595.0,286046998.4,N
1521648596.0,286046998.4,N
1521648615.8,286046998.1,N
1521648635.6,286046999.3,N
1521648655.5,286046997.2,N
1521648675.3,286046999.5,N
1521648695.1,286046999.5,N
1521648715.9,286046998.7,N
1521648735.7,286046999.1,N
1521648755.6,286046996.6,N
1521648775.4,286046999.6,N
1521648795.2,286046995.0,Y
1521648815.1,286046997.4,P
1521648816.0,286046997.4,N
1521648835.8,286046996.8,P
1521648855.7,286046997.2,Y
1521648875.5,286046998.1,P
1521648895.3,286047001.0,P
1521648915.2,286047000.9,N
1521648935.0,286047000.7,N
1521648935.9,286047000.7,N
1521648955.8,286047000.5,N
1521648975.6,286046998.1,N
1521648995.4,286047000.4,N
1521649015.3,286047000.9,N
1521649035.1,286046999.9,N
1521649055.9,286047000.8,N
1521649075.7,286047001.0,N
1521649095.5,286046998.4,N
1521649115.4,286046998.3,N
1521649135.2,286046998.3,N
1521649155.0,286047000.4,N
1521649156.0,286047000.4,N
1521649175.8,286047000.8,N
1521649195.6,286046999.1,N
1521649215.5,286047000.8,N
1521649235.3,286047000.7,N
1521649255.1,286047001.4,N
1521649275.9,286047001.4,N
1521649295.7,286047003.1,N
1521649315.5,286047003.1,N
1521649335.4,286047003.2,N
1521649355.2,286047005.3,Y
1521649375.1,286047005.2,P
1521649376.0,286047005.2,N
1521649395.8,286047003.2,N
1521649415.7,286047003.3,N
1521649435.5,286047006.0,Y
1521649455.3,286047000.9,P
1521649475.2,286047000.5,N
1521649495.0,286046999.7,N
1521649495.9,286046999.7,N
1521649515.7,286047000.1,N
1521649535.6,286047002.4,N
1521649555.4,286047002.4,N
1521649575.3,286047002.4,N
1521649595.1,286047002.8,N
1521649596.0,286047002.8,N
1521649615.8,286047004.0,N
1521649635.7,286047003.1,N
1521649655.5,286047004.2,N
1521649675.3,286047001.7,N
1521649695.2,286047004.4,Y
1521649715.0,286047000.5,P
1521649715.9,286047000.5,N
1521649735.8,286047002.8,P
1521649755.6,286047001.4,N
1521649775.4,286047004.2,Y
1521649795.3,286047003.5,P
1521649815.1,286047003.3,P
1521649835.9,286047005.5,P
1521649855.7,286047005.6,Y
1521649875.5,286047000.5,P
1521649895.4,286046998.8,N
1521649915.2,286046997.0,N
1521649935.1,286046999.5,N
1521649936.0,286046999.5,N
1521649955.8,286046998.2,N
1521649975.6,286046998.7,N
1521649995.5,286047000.8,N
1521650015.3,286047000.4,N
1521650035.2,286047000.7,N
1521650055.9,286046998.8,N
1521650075.7,286046999.1,N
1521650095.6,286046999.4,N
1521650115.4,286046997.0,N
1521650135.2,286046996.8,N
1521650155.1,286046996.9,N
1521650156.0,286046996.9,N
1521650175.8,286046998.0,N
1521650195.7,286046997.3,N
1521650215.5,286046998.6,N
1521650235.3,286047001.1,N
1521650255.2,286047001.0,N
1521650275.0,286046998.3,N
1521650275.9,286046998.3,N
1521650295.7,286047001.1,N
1521650315.6,286047000.2,N
1521650335.4,286047000.8,N
1521650355.3,286046998.6,N
1521650375.1,286046999.1,N
1521650376.0,286046999.1,N
1521650395.8,286046998.5,N
1521650415.7,286046998.2,N
1521650435.5,286046998.9,N
1521650455.4,286046998.6,N
1521650475.2,286047002.8,N
1521650495.0,286046999.8,N
1521650495.9,286046999.8,N
1521650515.8,286047002.8,N
1521650535.6,286047002.8,N
1521650555.4,286047002.8,N
1521650575.3,286046999.7,N
1521650595.1,286047002.1,N
1521650615.9,286047003.1,N
1521650635.7,286047002.1,N
1521650655.5,286046999.7,N
1521650675.4,286047000.6,N
1521650695.2,286046999.8,N
1521650715.0,286047002.4,N
1521650715.9,286047002.4,N
1521650735.8,286047002.7,N
1521650755.6,286047000.2,N
1521650775.5,286047000.7,N
1521650795.3,286047001.2,N
1521650815.1,286047000.2,N
1521650835.9,286046999.7,N
1521650855.7,286046999.9,N
1521650875.6,286047001.6,N
1521650895.4,286047004.3,N
1521650915.2,286047004.0,N
1521650935.1,286047001.5,N
1521650936.0,286047001.5,N
1521650955.8,286047003.9,N
1521650975.6,286047001.5,N
1521650995.5,286047005.9,Y
1521651015.3,286047001.4,P
1521651035.2,286047004.1,P
1521651055.9,286047004.2,P
1521651075.7,286047001.3,N
1521651095.6,286047000.2,N
1521651115.4,286047002.2,N
1521651135.2,286047002.2,N
1521651155.1,286047001.3,N
1521651156.0,286047001.3,N
1521651175.8,286047002.3,N
1521651195.7,286047004.4,Y
1521651215.5,286047000.3,P
1521651235.3,286046998.1,N
1521651255.2,286047000.2,N
1521651275.0,286047001.2,N
1521651275.9,286047001.2,N
1521651295.8,286046998.2,N
1521651315.6,286047001.0,N
1521651335.4,286046998.1,N
1521651355.3,286047000.5,N
1521651375.1,286047001.0,N
1521651395.8,286046998.8,N
1521651415.7,286046999.4,N
1521651435.5,286046996.5,N
1521651455.4,286046999.2,N
1521651475.2,286046996.5,N
1521651495.0,286046999.4,N
1521651495.9,286046999.4,N
1521651515.8,286047000.3,N
1521651535.6,286046998.2,N
1521651555.4,286046999.0,N
1521651575.3,286046999.2,N
1521651595.1,286047000.9,N
